Saint Augustine, FL

9:39 PM EST on February 13, 2016 (GMT -0500)
Saint Augustine

Weather History for KSGJ - September, 2012

Change the Weather History Date:

Saturday, September 15, 2012

  Actual Average Record
Temperature  
Mean Temperature 80 °F -  
Max Temperature 84 °F 83 °F 93 °F (1990)
Min Temperature 75 °F 71 °F 61 °F (1976)
Cooling Degree Days 14    
Growing Degree Days 30 (Base 50)    
Moisture  
Dew Point 73 °F    
Average Humidity 76    
Maximum Humidity 85    
Minimum Humidity 69    
Precipitation  
Precipitation 0.00 in - - ()
Sea Level Pressure  
Sea Level Pressure 30.09 in    
Wind  
Wind Speed 10 mph (NE)    
Max Wind Speed 16 mph    
Max Gust Speed 21 mph    
Visibility 10 miles    
Events      
Averages and records for this station are not official NWS values.
T = Trace of Precipitation, MM = Missing Value Source: NWS Daily Summary

Daily Weather History Graph

Daily Weather History Graph

Search for Another Location

Airport or City:

Trip Planner

Search our weather history database for the weather conditions in past years. The results will help you decide how hot, cold, wet, or windy it might be!

Date:

Astronomy

Sep. 15, 2012 Rise Set
Actual Time 7:10 AM EDT 7:30 PM EDT
Civil Twilight 6:46 AM EDT 7:53 PM EDT
Nautical Twilight 6:18 AM EDT 8:21 PM EDT
Astronomical Twilight 5:49 AM EDT 8:50 PM EDT
Moon 6:38 AM EDT (9/15) 7:03 PM EDT (9/15)
Length of Visible Light 13h 07m
Length of Day
12h 19m
Waning Crescent, 0% of the Moon is Illuminated
Sep 15
Waning Crescent
Sep 15
New
Sep 22
First Quarter
Sep 29
Full
Oct 8
Last Quarter

Hourly Weather History & Observations

Time (EDT) Temp. Heat Index Dew Point Humidity Pressure Visibility Wind Dir Wind Speed Gust Speed Precip Events Conditions
12:58 AM 78.1 °F - 73.0 °F 84% 30.10 in 10.0 mi ENE 10.4 mph - N/A   Partly Cloudy
1:58 AM 78.1 °F - 72.0 °F 81% 30.09 in 10.0 mi ENE 10.4 mph - N/A   Clear
2:58 AM 79.0 °F - 71.1 °F 77% 30.08 in 10.0 mi East 8.1 mph - N/A   Partly Cloudy
3:58 AM 79.0 °F - 71.1 °F 77% 30.07 in 10.0 mi East 6.9 mph - N/A   Partly Cloudy
4:58 AM 78.1 °F - 71.1 °F 79% 30.07 in 10.0 mi ENE 6.9 mph - N/A   Partly Cloudy
5:58 AM 77.0 °F - 71.1 °F 82% 30.08 in 10.0 mi ENE 5.8 mph - N/A   Clear
6:58 AM 75.9 °F - 71.1 °F 85% 30.10 in 10.0 mi NNE 3.5 mph - N/A   Partly Cloudy
7:58 AM 79.0 °F - 72.0 °F 79% 30.11 in 10.0 mi NE 8.1 mph - N/A   Scattered Clouds
8:58 AM 82.0 °F 86.7 °F 72.0 °F 71% 30.12 in 10.0 mi NE 9.2 mph - N/A   Partly Cloudy
9:58 AM 82.9 °F 88.0 °F 72.0 °F 69% 30.13 in 10.0 mi NE 10.4 mph - N/A   Clear
10:58 AM 82.9 °F 88.8 °F 73.0 °F 72% 30.13 in 10.0 mi ENE 9.2 mph - N/A   Clear
11:58 AM 82.9 °F 88.8 °F 73.0 °F 72% 30.12 in 10.0 mi NE 13.8 mph - N/A   Partly Cloudy
12:58 PM 84.0 °F 90.2 °F 73.0 °F 69% 30.12 in 10.0 mi NE 11.5 mph - N/A   Partly Cloudy
1:54 PM 84.2 °F 90.9 °F 73.4 °F 70% 30.11 in 10.0 mi NE 16.1 mph 20.7 mph N/A   Mostly Cloudy
1:58 PM 84.0 °F 91.2 °F 73.9 °F 72% 30.11 in 10.0 mi NE 15.0 mph - N/A   Mostly Cloudy
2:09 PM 84.2 °F 90.9 °F 73.4 °F 70% 30.10 in 10.0 mi NE 12.7 mph - N/A   Mostly Cloudy
2:58 PM 82.9 °F 88.8 °F 73.0 °F 72% 30.09 in 10.0 mi NE 16.1 mph - N/A   Clear
3:58 PM 82.9 °F 88.0 °F 72.0 °F 69% 30.08 in 10.0 mi NE 16.1 mph - N/A   Clear
4:58 PM 82.9 °F 88.8 °F 73.0 °F 72% 30.07 in 10.0 mi NE 15.0 mph - N/A   Clear
5:48 PM 82.4 °F 88.2 °F 73.4 °F 74% 30.07 in 10.0 mi NE 16.1 mph - N/A   Mostly Cloudy
5:58 PM 82.0 °F 87.4 °F 73.0 °F 74% 30.07 in 10.0 mi NE 15.0 mph - N/A   Mostly Cloudy
6:27 PM 82.4 °F 88.2 °F 73.4 °F 74% 30.07 in 10.0 mi NE 13.8 mph - N/A   Scattered Clouds
6:58 PM 81.0 °F 85.2 °F 72.0 °F 74% 30.07 in 10.0 mi ENE 11.5 mph - N/A   Partly Cloudy
7:09 PM 80.6 °F 85.4 °F 73.4 °F 79% 30.07 in 10.0 mi ENE 10.4 mph - N/A   Mostly Cloudy
7:22 PM 80.6 °F 84.6 °F 71.6 °F 74% 30.07 in 10.0 mi ENE 11.5 mph - N/A   Scattered Clouds
8:58 PM 80.1 °F 84.2 °F 73.0 °F 79% 30.07 in 10.0 mi ENE 9.2 mph - N/A   Partly Cloudy
9:58 PM 80.1 °F 84.2 °F 73.0 °F 79% 30.09 in 10.0 mi ENE 11.5 mph - N/A   Mostly Cloudy
10:19 PM 80.6 °F 85.4 °F 73.4 °F 79% 30.09 in 10.0 mi ENE 8.1 mph - N/A   Scattered Clouds
10:58 PM 80.1 °F 84.2 °F 73.0 °F 79% 30.09 in 10.0 mi ENE 10.4 mph - N/A   Clear
11:58 PM 79.0 °F - 72.0 °F 79% 30.09 in 10.0 mi ENE 6.9 mph - N/A   Clear